Location: Tel Aviv
(32.0670°N, 34.7670°E)
Time: 18:34:35
(UTC+03:00)

Vanguard 2 Rocket - Pass Details

Date: 29 January 2022
Orbit: 553 x 3323 km, 32.9° (Epoch: 24 May)

Event Time Altitude Azimuth Distance (km) Brightness Sun altitude
Exits shadow 01:40:14 48° 82° (E) 3,692 9.8 -62.2°
Drops below altitude 10° 01:53:07 10° 83° (E) 6,282 11.5 -59.7°
Sets 01:58:03 0° 83° (E) 7,291 12.0 -58.7°
